Location: Poigny-la-Forêt
(48.6876°N, 1.7701°E)
Time: 20:06:36
(UTC+02:00)

Envisat - Pass Details

Date: 29 March 2019
Orbit: 764 x 766 km, 98.2° (Epoch: 24 April)

Event Time Altitude Azimuth Distance (km) Brightness Sun altitude
Rises 20:18:41 0° 196° (SSW) 3,221 6.2 -10.5°
Reaches altitude 10° 20:21:18 10° 208° (SSW) 2,300 5.6 -10.9°
Maximum altitude 20:25:37 28° 267° (W) 1,423 5.2 -11.6°
Drops below altitude 10° 20:29:57 10° 325° (NW) 2,314 6.4 -12.3°
Sets 20:32:36 0° 337° (NNW) 3,245 6.9 -12.7°
